"Pseudo-MPEC" for P10Sz9b

Created 2019 Oct 16 16:07:13 UT using Find_Orb

Click here for an explanation of pseudo-MPECs

 
 Astrometry: 
     P10Sz9b  C2019 09 24#BZw9Hw*9^%oZ5LaL_i3nONBh.*c#YAym8oow.AstrometrySVWgF51
     P10Sz9b  C2019 09 24E)NrCr_7!3Yi+ANHEaiDT-7Jh2/DDwjMKJw!byhuBs=pAbW1,frwF51
     P10Sz9b  C2019 09 24jue*0F'TN-Jx^%:]m6ZfSP-obrUNkSftJ(u,6#9`UQep52`oxmy`F51
     P10Sz9b  C2019 10 07b;2=i#JaCi6HK1TbhGCxBmgT-\-6GQY4u]^6ZML(y7\;%)=#\9JIF51
     P10Sz9b  C2019 10 07nX`U2vOM[cHrG_SOe[(#rw\Un97.aVredacted;vG1bCg7JTMOV2F51
     P10Sz9b  C2019 10 07\_Q=ATikE2^6@wPRx;;u(,_;M4q9p0jgQy1ojVclick[(FV+D,]vF51
     P10Sz9b  C2019 10 07HxL*+LCFy1q8''(IX[Z'%jb.69here4%ve'O7e4=/4@+.fjKxL_YF51
     P10Sz9b KC2019 10 08.42237 01 30 52.14 +13 31 37.5    ~A8Cq 21.8 RoNEOCP691
     P10Sz9b KC2019 10 08.42964 01 30 52.01 +13 31 36.9    ~A8Cq 21.9 RoNEOCP691
     P10Sz9b KC2019 10 08.43691 01 30 51.88 +13 31 36.4    ~A8Cq 21.6 RoNEOCP691
     P10Sz9b ^C2019 10 10Q)Afor_s:Rbs)MXel[tZQ;e_q+)B)/[explanationbad]7QSyJ6695
     P10Sz9b ^C2019 10 10JnDj:YdtdY9IPx-L'-CWKZX=fe6!w;IA+=UIk?)*C3(P`cFG`$Mt695
     P10Sz9b ^C2019 10 106j`U`Q0]lYYQvhA-]K*q-41p[X0__*O)k*jv:'hs`?INsj6Wo@NU695

Station data:
(691) Steward Observatory, Kitt Peak - Spacewatch  (N31.962174 W111.600327)
   US/Arizona.  Observer J. V. Scotti. 0.9-m f/3 reflector + CCD.
(695) Kitt Peak  (N31.958398 W111.594670)  US/Arizona.
(F51) Pan-STARRS 1, Haleakala  (N20.707235 W156.255910)  US/Hawaii.
   Observers N. Primak, A. Schultz, S. Watters, J. Thiel, T. Goggia. Measurer
   PS1 Science Consortium. 1.8-m Ritchey-Chrétien + CCD.

Orbital elements:  P10Sz9b
   Perihelion 2019 Jan 19.121757 +/- 54.9 TT =  2:55:19 (JD 2458502.621757)
Epoch 2019 Oct 10.0 TT = JDT 2458766.5   Sa: 0.7287   Ur: 0.8420   Ne: 0.4627
M   1.71020576 +/- 0.6              (J2000 ecliptic)          AutoNEOCP
n   0.00648104 +/- 0.00331          Peri.   21.26629 +/- 4.9
a  28.4909016 +/- 9.58              Node   343.73830 +/- 0.9
e   0.7646891 +/- 0.0807            Incl.    4.91939 +/- 0.09
P 152.08                   H 13.8   G  0.15   U  8.9  
q 6.70421788 +/- 0.237    Q 50.2775854 +/- 249
From 13 observations 2019 Sept. 24-Oct. 10; mean residual 0".14
Residuals in arcseconds: 
190924 F51  .11+  .09+    191007 F51  .04+  .00     191010 695  .06-  .06-    
190924 F51  .00   .10-    191007 F51  .14+  .13-    191010 695  .08+  .23-    
190924 F51  .11-  .01+    191008 691  .33-  .16+    191010 695  .08+  .11+    
191007 F51  .05+  .27-    191008 691  .13-  .17+    
191007 F51  .09+  .12-    191008 691  .07+  .29+    

Ephemerides (geocentric):
Date (UTC) HH   RA              Dec         delta   r     elong  mag " sig PA
---- -- -- --  -------------   -----------  ------ ------ -----  --- ---- ---
2019 10 16 16  01 28 10.046   +13 19 23.10  5.8908 6.8849 175.4 22.0 1.43 133
2019 10 16 17  01 28 09.219   +13 19 19.19  5.8908 6.8850 175.4 22.0 1.44 133
2019 10 16 18  01 28 08.392   +13 19 15.29  5.8908 6.8850 175.5 22.0 1.45 132
2019 10 16 19  01 28 07.565   +13 19 11.39  5.8909 6.8851 175.5 22.0 1.46 132
2019 10 16 20  01 28 06.739   +13 19 07.48  5.8909 6.8851 175.5 22.0 1.48 132
2019 10 16 21  01 28 05.912   +13 19 03.57  5.8909 6.8852 175.5 22.0 1.49 132
2019 10 16 22  01 28 05.085   +13 18 59.67  5.8910 6.8852 175.5 22.0 1.50 132
2019 10 16 23  01 28 04.258   +13 18 55.75  5.8910 6.8853 175.6 22.0 1.52 132
2019 10 17 00  01 28 03.431   +13 18 51.84  5.8911 6.8853 175.6 22.0 1.53 131
2019 10 17 01  01 28 02.604   +13 18 47.93  5.8911 6.8854 175.6 22.0 1.54 131
2019 10 17 02  01 28 01.777   +13 18 44.01  5.8911 6.8854 175.6 22.0 1.55 131
2019 10 17 03  01 28 00.951   +13 18 40.10  5.8912 6.8855 175.7 22.0 1.57 131
2019 10 17 04  01 28 00.124   +13 18 36.18  5.8912 6.8856 175.7 22.0 1.58 131
2019 10 17 05  01 27 59.297   +13 18 32.26  5.8913 6.8856 175.7 22.0 1.59 130
2019 10 17 06  01 27 58.470   +13 18 28.34  5.8913 6.8857 175.7 22.0 1.61 130
2019 10 17 07  01 27 57.643   +13 18 24.42  5.8914 6.8857 175.7 22.0 1.62 130
2019 10 17 08  01 27 56.816   +13 18 20.49  5.8914 6.8858 175.8 22.0 1.63 130
2019 10 17 09  01 27 55.990   +13 18 16.57  5.8914 6.8858 175.8 22.0 1.65 130
2019 10 17 10  01 27 55.163   +13 18 12.64  5.8915 6.8859 175.8 22.0 1.66 130
2019 10 17 11  01 27 54.336   +13 18 08.72  5.8915 6.8859 175.8 22.0 1.68 129
2019 10 17 12  01 27 53.509   +13 18 04.79  5.8916 6.8860 175.8 22.0 1.69 129
2019 10 17 13  01 27 52.682   +13 18 00.86  5.8916 6.8861 175.9 22.0 1.70 129
2019 10 17 14  01 27 51.856   +13 17 56.92  5.8917 6.8861 175.9 22.0 1.72 129
2019 10 17 15  01 27 51.029   +13 17 52.99  5.8917 6.8862 175.9 22.0 1.73 129
2019 10 17 16  01 27 50.202   +13 17 49.05  5.8918 6.8862 175.9 22.0 1.75 129
2019 10 17 17  01 27 49.375   +13 17 45.12  5.8918 6.8863 175.9 22.0 1.76 128
2019 10 17 18  01 27 48.549   +13 17 41.18  5.8919 6.8863 175.9 22.0 1.77 128
2019 10 17 19  01 27 47.722   +13 17 37.24  5.8919 6.8864 176.0 22.0 1.79 128
2019 10 17 20  01 27 46.895   +13 17 33.30  5.8920 6.8864 176.0 22.0 1.80 128
2019 10 17 21  01 27 46.069   +13 17 29.36  5.8920 6.8865 176.0 22.0 1.82 128
2019 10 17 22  01 27 45.242   +13 17 25.41  5.8921 6.8865 176.0 22.0 1.83 128
2019 10 17 23  01 27 44.415   +13 17 21.47  5.8921 6.8866 176.0 22.0 1.85 127
2019 10 18 00  01 27 43.589   +13 17 17.52  5.8922 6.8867 176.0 22.0 1.86 127
2019 10 18 01  01 27 42.762   +13 17 13.58  5.8922 6.8867 176.0 22.0 1.88 127
2019 10 18 02  01 27 41.936   +13 17 09.63  5.8923 6.8868 176.1 22.0 1.89 127
2019 10 18 03  01 27 41.109   +13 17 05.68  5.8923 6.8868 176.1 22.0 1.91 127
2019 10 18 04  01 27 40.283   +13 17 01.73  5.8924 6.8869 176.1 22.0 1.92 127
2019 10 18 05  01 27 39.456   +13 16 57.77  5.8925 6.8869 176.1 22.0 1.94 127
2019 10 18 06  01 27 38.630   +13 16 53.82  5.8925 6.8870 176.1 22.0 1.95 126
2019 10 18 07  01 27 37.804   +13 16 49.86  5.8926 6.8870 176.1 22.0 1.97 126
2019 10 18 08  01 27 36.977   +13 16 45.91  5.8926 6.8871 176.1 22.0 1.98 126
2019 10 18 09  01 27 36.151   +13 16 41.95  5.8927 6.8871 176.1 22.0 2.00 126
2019 10 18 10  01 27 35.325   +13 16 37.99  5.8927 6.8872 176.1 22.0 2.01 126
2019 10 18 11  01 27 34.498   +13 16 34.03  5.8928 6.8873 176.1 22.0 2.03 126
2019 10 18 12  01 27 33.672   +13 16 30.06  5.8929 6.8873 176.1 22.0 2.05 125
2019 10 18 13  01 27 32.846   +13 16 26.10  5.8929 6.8874 176.2 22.0 2.06 125
2019 10 18 14  01 27 32.020   +13 16 22.14  5.8930 6.8874 176.2 22.0 2.08 125
2019 10 18 15  01 27 31.194   +13 16 18.17  5.8930 6.8875 176.2 22.0 2.09 125